Tracking 29892 objects as of 21-Nov-2024
HD Live streaming from Space Station
objects crossing your sky now

STARLINK-6246

Track STARLINK-6246 now!
10-day predictions
STARLINK-6246 is classified as:


NORAD ID: 57078
Int'l Code: 2023-088AG
Perigee: 565.5 km
Apogee: 567.0 km
Inclination: 43.0 °
Period: 95.8 minutes
Semi major axis: 6937 km
RCS: Unknown
Launch date: June 22, 2023
Source: United States (US)
Launch site: AIR FORCE WESTERN TEST RANGE (AFWTR)
Your satellite tracking list
Your tracking list is empty




NASA's NSSDC Master Catalog

Two Line Element Set (TLE):
1 57078U 23088AG  24325.89615808  .00000431  00000-0  46996-4 0  9995
2 57078  43.0018 149.3766 0001070 276.2014  83.8707 15.02536941 79073
Source of the keplerian elements: AFSPC